STARLINK-3969 (52551 NORAD) Tracking and Keplerian Element Data

This shows tracking and keplerian element data for the satellite.

Feedback or suggestion? Click here.




ElementValue
Catalog52551
NameSTARLINK-3969
Epoch Orbit130
Epoch Day167.08334491
Epoch Year2022
RAAN130.416
Inclination53.2168
Eccentricity0.0001496
Argument of Perigee62.3449
Mean Anonmoly27.1005
Mean Motion15.49887207
Decay Rate-0.00016485
L11 52551U 22051U 22167.08334491 -.00016485 00000+0 -28307-3 0 9996
L22 52551 53.2168 130.4160 0001496 62.3449 27.1005 15.49887207 1308

Live tracking and technical data element details for STARLINK-3969 (NORAD 52551). STARLINK-3969 can be tracked NOW for your location showing map with azimuth and elevation plus other details from your city location.

Track the satellite on the map from your city or location and see movement details for azimuth, elevation, latitude, longitude, range, height, and movement on the map or in text.







IsCatalogInMostPopularTable: catalog: 52551, numindb: 2
Update: records affected: 1



GetName: 52551 STARLINK-3969

Hit Count: updated at: Mon, 27 Jun 2022 05:06:25 GMT